This demonstration page uses our WeatherBlox Daily Observations layout. Learn more.

Left ArrowRight Arrow

Hourly Observations for June 26, 2016

Temp ( °F °C ) Dew Point ( °F °C ) Humidity (%) Winds ( mph kmh ) Pressure ( in mb ) Visibility ( mi km ) Precip ( " mm )
12:54 am 00:54 Cloudy 76 24.4 69 20.6 79 79 Calm 29.98 1015 10 16.0934 0 0
1:54 am 01:54 Mostly Cloudy 76 24.4 69 20.6 79 79 SW 5 7 29.99 1016 10 16.0934 0 0
2:54 am 02:54 Mostly Cloudy 75 23.9 68 20 79 79 NNW 3 6 29.97 1015 10 16.0934 0 0
3:54 am 03:54 Clear 72 22.2 68 20 87 87 N 7 11 29.98 1015 10 16.0934 0 0
4:54 am 04:54 Clear 73 22.8 66 18.9 79 79 NNW 9 15 29.99 1016 10 16.0934 0 0
5:54 am 05:54 Clear 71 21.7 66 18.9 84 84 Calm 30.02 1017 10 16.0934 0 0
6:54 am 06:54 Sunny 72 22.2 66 18.9 82 82 WNW 6 9 30.03 1017 10 16.0934 0 0
7:54 am 07:54 Sunny 73 22.8 66 18.9 79 79 NNW 6 9 30.03 1017 10 16.0934 0 0
8:54 am 08:54 Sunny 76 24.4 65 18.3 69 69 N 8 13 30.05 1018 10 16.0934 0 0
9:54 am 09:54 Sunny 80 26.7 65 18.3 60 60 N 9 15 30.07 1018 10 16.0934 0 0
10:54 am 10:54 Mostly Sunny 80 26.7 64 17.8 58 58 NE 7 11 30.09 1019 N/A 0 0
11:54 am 11:54 Sunny 84 28.9 65 18.3 53 53 undefined N/A 30.1 1019 10 16.0934 0 0
12:54 pm 12:54 Sunny 87 30.6 64 17.8 46 46 undefined N/A 30.09 1019 10 16.0934 0 0
1:54 pm 13:54 Sunny 88 31.1 65 18.3 46 46 E 10 17 30.07 1018 10 16.0934 0 0
2:54 pm 14:54 Sunny 91 32.8 63 17.2 39 39 E 9 15 30.05 1018 10 16.0934 0 0
3:54 pm 15:54 Sunny 91 32.8 58 14.4 33 33 VRB 6 9 30.04 1017 10 16.0934 0 0
4:54 pm 16:54 Sunny 93 33.9 57 13.9 30 30 ESE 9 15 30.02 1017 10 16.0934 0 0
5:54 pm 17:54 Sunny 91 32.8 55 12.8 30 30 SSE 8 13 30.02 1017 10 16.0934 0 0
6:54 pm 18:54 Sunny 89 31.7 55 12.8 31 31 SE 10 17 30.02 1017 10 16.0934 0 0
7:54 pm 19:54 Sunny 86 30 62 16.7 45 45 SE 8 13 30.05 1018 10 16.0934 0 0
8:54 pm 20:54 Sunny 83 28.3 65 18.3 55 55 SE 10 17 30.06 1018 10 16.0934 0 0
9:54 pm 21:54 Clear 79 26.1 68 20 69 69 ESE 6 9 30.07 1018 10 16.0934 0 0
10:54 pm 22:54 Clear 75 23.9 69 20.6 82 82 SSE 3 6 30.08 1019 10 16.0934 0 0
11:54 pm 23:54 Clear 76 24.4 70 21.1 82 82 S 5 7 30.1 1019 10 16.0934 0 0

Powered by AerisWeather